Lid_Strength_Index
3 3 3 2 2 2 0 -0 -1 -0 -0 0 0 1 1 1 0 2 5 2 1 -1 -0 3 4 3 3 5 5 5 12 14 14 14 14 11 12 10 9 11 9 8 9 7 4
3 2 2 3 2 2 1 -0 -1 -0 -0 1 1 1 0 0 2 4 1 -1 -1 -1 2 4 5 4 6 6 6 9 12 12 10 11 12 11 11 11 10 10 10 9 7 6 5
2 2 2 2 2 2 2 0 -1 -0 0 0 1 0 1 1 5 5 -1 -2 -1 -0 2 2 3 4 7 7 9 8 12 9 9 9 9 11 11 9 10 11 9 10 9 7 5
2 2 2 3 2 2 2 1 -0 0 0 0 0 1 0 2 13 4 -2 -1 -1 1 1 3 4 7 8 9 7 10 8 8 7 7 8 9 8 9 9 9 7 7 6 6 6
2 2 2 2 2 2 2 1 0 1 -0 -0 0 1 2 6 6 2 -1 -0 2 2 3 4 6 8 10 8 7 9 8 7 7 7 7 7 8 8 8 5 6 7 6 7 6
2 2 2 1 2 2 2 2 1 -0 0 0 0 0 4 10 3 1 2 2 3 2 4 4 6 5 7 8 9 8 8 8 7 8 7 8 8 8 7 5 5 5 6 6 6
1 1 1 1 1 2 2 1 1 1 1 1 -0 1 5 8 3 3 3 4 2 3 5 4 4 6 7 10 7 7 11 9 8 8 9 8 11 10 6 6 6 6 5 5 4
0 0 1 1 1 1 1 0 0 1 1 1 -1 2 8 2 2 3 4 4 2 2 3 3 3 5 7 7 8 11 11 15 9 8 8 9 14 8 7 7 7 6 6 6 4
-0 -1 -1 -0 1 1 1 0 0 0 0 -0 2 5 9 1 5 6 5 5 3 2 3 3 5 8 7 11 12 12 16 15 12 8 9 10 13 8 7 8 8 7 6 6 5
-2 -2 -1 -1 -1 0 1 1 0 1 1 -0 2 8 6 7 5 5 4 3 5 5 5 6 8 11 10 12 17 16 15 13 14 10 10 11 12 9 8 8 8 8 7 7 6
-2 -1 -1 -1 -1 -0 1 5 7 8 5 7 7 8 6 5 5 5 4 5 5 7 11 8 12 14 12 11 11 12 14 14 12 10 11 12 12 10 8 9 9 7 8 7 6
-2 -1 -1 -1 -1 -0 2 7 7 5 9 5 6 6 5 6 8 6 4 8 8 11 10 10 14 10 9 9 11 12 14 14 12 10 11 12 12 10 9 10 8 8 8 7 7
-2 -2 -1 -1 -1 2 3 4 1 3 8 6 5 6 7 7 8 7 6 7 10 12 12 14 12 8 9 11 12 12 13 13 13 11 10 12 14 12 9 8 7 7 7 7 7
-2 -1 -1 -1 2 2 3 1 0 3 12 10 8 7 7 6 9 5 5 7 10 12 11 13 9 10 11 12 11 15 11 11 12 14 18 12 19 14 12 10 9 8 8 7 7
-2 -1 -1 0 5 4 2 1 1 5 21 9 9 5 6 8 9 8 5 7 11 11 13 15 13 12 12 11 10 13 10 11 12 14 16 14 17 15 13 12 11 9 8 7 6
-0 -0 0 2 3 2 1 2 5 15 21 12 10 10 10 9 10 8 8 7 8 11 12 13 10 11 10 9 9 9 11 12 13 15 19 16 17 17 16 13 11 9 9 7 6
-0 -1 1 2 6 2 2 6 16 21 13 14 12 10 11 12 11 11 11 13 15 19 19 15 13 10 8 11 9 10 14 19 21 21 21 14 16 16 13 10 10 10 9 8 6
-1 1 1 2 2 3 4 10 18 14 15 11 11 11 14 12 12 12 14 15 13 14 19 20 21 12 9 10 13 13 14 19 24 22 20 14 19 15 12 10 9 8 8 8 9
1 4 4 3 3 5 9 16 16 15 12 12 12 15 15 13 13 14 15 15 13 13 17 19 18 12 10 9 10 13 15 12 17 16 19 17 15 13 12 12 11 10 9 9 8
7 7 7 4 5 8 13 14 13 11 10 11 16 15 17 15 15 16 16 14 13 12 12 15 20 14 11 10 11 12 12 17 17 23 23 19 18 17 13 13 12 12 11 10 8
8 11 7 6 7 12 18 16 12 10 10 13 15 15 16 16 16 17 17 14 13 12 13 15 17 17 13 14 15 15 16 15 16 16 23 23 19 11 11 11 12 12 11 11 9
9 14 8 8 13 15 17 13 10 11 11 12 13 14 15 15 16 17 17 16 13 13 16 14 17 22 16 13 12 13 15 16 20 21 17 20 18 9 10 9 11 11 11 11 10
11 13 9 10 17 18 13 12 11 12 12 13 13 13 14 16 17 16 16 13 13 14 16 14 21 28 22 19 15 16 15 14 17 19 19 22 18 9 10 9 9 10 10 10 10
13 16 14 13 14 16 15 14 14 11 12 12 14 13 15 16 15 17 16 14 13 14 11 13 20 24 26 22 18 18 16 15 17 23 21 19 18 12 11 9 9 10 9 9 9
13 14 13 18 15 15 14 14 15 16 14 13 14 15 16 19 18 18 17 16 15 13 15 17 24 20 18 17 16 17 17 16 21 17 21 17 15 13 12 12 10 9 9 9 9
16 16 15 16 15 15 14 16 15 15 15 16 16 15 16 18 18 19 18 18 19 16 17 17 24 23 24 17 17 18 16 17 16 15 15 15 14 11 10 11 10 9 9 9 9
12 12 13 15 16 16 16 15 15 15 15 15 16 16 17 17 17 16 16 16 17 19 19 19 23 24 24 19 21 24 17 17 15 14 15 18 14 12 11 9 10 9 9 8 8